Location: Newark
(41.2758°N, 92.6808°W)
Time: 03:53:05
(UTC+00:00)

N. Korean satellite - Pass Details

Date: 28 September 2019
Orbit: 455 x 508 km, 97.2° (Epoch: 20 October)

Event Time Altitude Azimuth Distance (km) Brightness Sun altitude
Rises 11:01:49 0° 36° (NE) 2,483 10.9 -12.5°
Reaches altitude 10° 11:05:10 10° 72° (ENE) 1,608 10.7 -11.9°
Maximum altitude 11:06:19 11° 91° (E) 1,528 10.5 -11.7°
Drops below altitude 10° 11:07:28 10° 111° (ESE) 1,610 10.2 -11.4°
Sets 11:10:49 0° 147° (SSE) 2,489 10.5 -10.8°
